Location: Newberry Star Park
(29.6730°N, 82.6011°W)
Time: 14:46:17
(UTC-05:00)

Tiangong 2 - Visible Passes

Search period start: 23 January 2018 00:00
Search period end: 02 February 2018 00:00
Orbit: 384 x 390 km, 42.8° (Epoch: 23 January)

Date Brightness Start Highest point End Pass type
(mag) Time Alt. Az. Time Alt. Az. Time Alt. Az.
27 Jan 3.8 06:02:18 10° N 06:02:58 11° NNE 06:03:47 10° NNE visible
28 Jan 3.0 06:38:53 10° NNW 06:41:28 22° NNE 06:44:04 10° E visible
29 Jan 3.6 05:42:34 15° NNE 05:42:34 15° NNE 05:44:26 10° ENE visible
30 Jan 2.1 06:18:55 19° NNW 06:20:48 40° NNE 06:23:49 10° ESE visible
31 Jan 3.7 05:23:02 19° ENE 05:23:02 19° ENE 05:24:30 10° E visible
31 Jan 1.9 06:55:45 10° WNW 06:58:45 39° SW 07:01:44 10° SSE visible
01 Feb 1.0 05:59:31 61° NW 05:59:59 89° N 06:03:11 10° SE visible
